Location: Rodson Ranch
(38.7188°N, 119.3202°W)
Time: 17:11:08
(UTC+00:00)

FENGYUN 3A - Pass Details

Date: 29 October 2020
Orbit: 824 x 835 km, 98.4° (Epoch: 23 November)

Event Time Altitude Azimuth Distance (km) Brightness Sun altitude
Rises 12:33:59 0° 12° (NNE) 3,392 7.0 -21.5°
Reaches altitude 10° 12:36:21 10° 13° (NNE) 2,454 6.2 -21.0°
Maximum altitude 12:41:48 88° 283° (WNW) 841 3.6 -20.0°
Drops below altitude 10° 12:47:13 10° 195° (SSW) 2,436 6.0 -18.9°
Sets 12:49:34 0° 195° (SSW) 3,365 6.7 -18.5°
